This is the latest recevied weather packets stored in our database for station/object N5ATR. If no packets are shown the sender has not sent any weather packets the latest 10 day(s).
| Time | Temp. | Humidity | Pressure | Rain* | Wind** | Luminosity | Snow |
|---|---|---|---|---|---|---|---|
| 1777501552 | 21.11° C | 13% | 1013.3 hPa | 0 mm | - | 467 W/m² | - |
| 1777501249 | 21.11° C | 13% | 1013.3 hPa | 0 mm | - | 481 W/m² | - |
| 1777500947 | 21.67° C | 12% | 1014 hPa | 0 mm | - | 492 W/m² | - |
| 1777500644 | 20.56° C | 13% | 1013.7 hPa | 0 mm | - | 503 W/m² | - |
| 1777500341 | 21.11° C | 13% | 1013.8 hPa | 0 mm | - | 518 W/m² | - |
| 1777500037 | 21.11° C | 13% | 1013.8 hPa | 0 mm | - | 530 W/m² | - |
| 1777499733 | 20.56° C | 13% | 1013.8 hPa | 0 mm | - | 544 W/m² | - |
| 1777499430 | 20.56° C | 13% | 1013.9 hPa | 0 mm | - | 556 W/m² | - |
| 1777499129 | 20.56° C | 13% | 1014 hPa | 0 mm | - | 570 W/m² | - |
| 1777498825 | 20.56° C | 13% | 1014.3 hPa | 0 mm | - | 581 W/m² | - |
| 1777498521 | 20° C | 13% | 1014.4 hPa | 0 mm | - | 593 W/m² | - |
| 1777498218 | 20.56° C | 13% | 1014.5 hPa | 0 mm | - | 606 W/m² | - |
| 1777497916 | 20.56° C | 13% | 1014.5 hPa | 0 mm | - | 619 W/m² | - |
| 1777497612 | 20.56° C | 13% | 1014.8 hPa | 0 mm | - | 630 W/m² | - |
| 1777497309 | 20.56° C | 13% | 1014.8 hPa | 0 mm | - | 643 W/m² | - |
| 1777497004 | 19.44° C | 13% | 1014.9 hPa | 0 mm | - | 655 W/m² | - |
| 1777496701 | 20.56° C | 13% | 1015 hPa | 0 mm | - | 666 W/m² | - |
| 1777496398 | 20° C | 13% | 1014.9 hPa | 0 mm | - | 677 W/m² | - |
| 1777496095 | 20° C | 13% | 1015.1 hPa | 0 mm | - | 686 W/m² | - |
| 1777495790 | 19.44° C | 13% | 1015.4 hPa | 0 mm | - | 695 W/m² | - |
| 1777495487 | 20° C | 13% | 1015.5 hPa | 0 mm | - | 704 W/m² | - |
| 1777495183 | 19.44° C | 13% | 1015.6 hPa | 0 mm | - | 713 W/m² | - |
| 1777494880 | 19.44° C | 13% | 1015.6 hPa | 0 mm | - | 720 W/m² | - |
| 1777494577 | 19.44° C | 13% | 1015.6 hPa | 0 mm | - | 727 W/m² | - |
| 1777494275 | 19.44° C | 13% | 1015.7 hPa | 0 mm | - | 735 W/m² | - |
* Rain latest hour (hover to see other rain measurements)
** Current wind speed in m/s (hover to see current wind gust speed)